Location: Brown Observing Site
(43.4354°N, 116.3366°W)
Time: 16:23:59
(UTC-07:00)

Envisat - Pass Details

Date: 28 October 2019
Orbit: 764 x 766 km, 98.1° (Epoch: 16 November)

Event Time Altitude Azimuth Distance (km) Brightness Sun altitude
Rises 19:52:17 0° 169° (S) 3,217 6.2 -13.3°
Reaches altitude 10° 19:54:35 10° 171° (S) 2,295 5.4 -13.7°
Maximum altitude 19:59:39 76° 258° (WSW) 792 3.2 -14.6°
Drops below altitude 10° 20:04:45 10° 344° (NNW) 2,310 5.6 -15.5°
Sets 20:07:04 0° 346° (NNW) 3,241 6.4 -15.9°
